This demonstration page uses our WeatherBlox Daily Observations layout. Learn more.

Left ArrowRight Arrow

Hourly Observations for April 19, 2020

Temp ( °F °C ) Dew Point ( °F °C ) Humidity (%) Winds ( mph kmh ) Pressure ( in mb ) Visibility ( mi km ) Precip ( " mm )
12:15 am 00:15 Clear 37 3 32 0 81 81 SW 6 9 30.05 1018 10 16.0934 0 0
12:35 am 00:35 Clear 36 2 32 0 87 87 WSW 6 9 30.06 1018 10 16.0934 0 0
12:55 am 00:55 Clear 36 2 32 0 87 87 WSW 3 6 30.06 1018 10 16.0934 0 0
1:15 am 01:15 Clear 36 2 32 0 87 87 WSW 5 7 30.06 1018 10 16.0934 0 0
1:35 am 01:35 Clear 36 2 32 0 87 87 WSW 3 6 30.05 1018 10 16.0934 0 0
1:55 am 01:55 Clear 36 2 32 0 87 87 W 5 7 30.04 1017 10 16.0934 0 0
2:15 am 02:15 Clear 34 1 32 0 93 93 W 7 11 30.04 1017 10 16.0934 0 0
2:35 am 02:35 Clear 34 1 32 0 93 93 W 5 7 30.03 1017 10 16.0934 0 0
2:55 am 02:55 Clear 34 1 32 0 93 93 W 7 11 30.02 1017 10 16.0934 0 0
3:15 am 03:15 Clear 34 1 32 0 93 93 W 5 7 30.02 1017 10 16.0934 0 0
3:35 am 03:35 Clear 34 1 32 0 93 93 Calm 30.01 1016 10 16.0934 0 0
3:55 am 03:55 Clear 34 1 32 0 93 93 WNW 6 9 30.02 1017 10 16.0934 0 0
4:15 am 04:15 Clear 37 3 32 0 81 81 NW 3 6 30 1016 10 16.0934 0 0
4:35 am 04:35 Clear 36 2 32 0 87 87 SSW 5 7 30.01 1016 10 16.0934 0 0
4:55 am 04:55 Clear 36 2 32 0 87 87 S 5 7 30.01 1016 10 16.0934 0 0
5:15 am 05:15 Clear 36 2 32 0 87 87 S 5 7 30.01 1016 10 16.0934 0 0
5:35 am 05:35 Clear 34 1 32 0 93 93 SSW 3 6 30.02 1017 10 16.0934 0 0
5:55 am 05:55 Clear 32 0 32 0 100 100 Calm 30.02 1017 10 16.0934 0 0
6:15 am 06:15 Clear 32 0 32 0 100 100 Calm 30.02 1017 10 16.0934 0 0
6:35 am 06:35 Sunny 32 0 30 -1 93 93 W 3 6 30.04 1017 10 16.0934 0 0
6:55 am 06:55 Sunny 32 0 30 -1 93 93 W 3 6 30.04 1017 10 16.0934 0 0
7:15 am 07:15 Sunny 32 0 32 0 100 100 SW 3 6 30.04 1017 10 16.0934 0 0
7:35 am 07:35 Sunny 34 1 32 0 93 93 Calm 30.05 1018 10 16.0934 0 0
7:55 am 07:55 Sunny 37 3 32 0 81 81 Calm 30.04 1017 10 16.0934 0 0
8:15 am 08:15 Sunny 39 4 32 0 75 75 Calm 30.04 1017 10 16.0934 0 0
8:35 am 08:35 Sunny 41 5 32 0 70 70 Calm 30.03 1017 10 16.0934 0 0
8:55 am 08:55 Sunny 43 6 32 0 66 66 Calm 30.03 1017 10 16.0934 0 0
9:15 am 09:15 Sunny 46 8 34 1 62 62 SSW 5 7 30.02 1017 10 16.0934 0 0
9:35 am 09:35 Sunny 50 10 34 1 54 54 S 6 9 30.01 1016 10 16.0934 0 0
9:55 am 09:55 Sunny 50 10 34 1 54 54 SW 7 11 30 1016 10 16.0934 0 0
10:15 am 10:15 Sunny 52 11 32 0 47 47 SW 8 13 29.98 1015 10 16.0934 0 0
10:35 am 10:35 Sunny 54 12 32 0 44 44 SSW 7 11 29.98 1015 10 16.0934 0 0
10:55 am 10:55 Sunny 54 12 34 1 47 47 S 10 17 29.98 1015 10 16.0934 0 0
11:15 am 11:15 Sunny 55 13 34 1 44 44 S 12 19 29.97 1015 10 16.0934 0 0
11:35 am 11:35 Sunny 55 13 32 0 41 41 S 9 15 29.96 1015 10 16.0934 0 0
11:55 am 11:55 Sunny 55 13 34 1 44 44 S 10 17 29.95 1014 10 16.0934 0 0
12:15 pm 12:15 Sunny 57 14 34 1 41 41 S 9 15 29.94 1014 10 16.0934 0 0
12:35 pm 12:35 Sunny 59 15 34 1 39 39 S 10 17 29.93 1013 10 16.0934 0 0
12:55 pm 12:55 Sunny 61 16 36 2 39 39 SSW 10 17 29.93 1013 10 16.0934 0 0
1:15 pm 13:15 Sunny 61 16 34 1 36 36 S 9 15 29.91 1013 10 16.0934 0 0
1:35 pm 13:35 Sunny 61 16 34 1 36 36 S 9 15 29.9 1012 10 16.0934 0 0
1:55 pm 13:55 Sunny 61 16 36 2 39 39 S 13 20 29.89 1012 10 16.0934 0 0
2:15 pm 14:15 Sunny 61 16 36 2 39 39 S 14 22 29.88 1012 10 16.0934 0 0
2:35 pm 14:35 Sunny 61 16 36 2 39 39 S 14 22 29.88 1012 10 16.0934 0 0
2:55 pm 14:55 Sunny 61 16 36 2 39 39 S 15 24 29.87 1011 10 16.0934 0 0
3:15 pm 15:15 Sunny 61 16 36 2 39 39 S 13 20 29.85 1011 10 16.0934 0 0
3:35 pm 15:35 Sunny 63 17 37 3 39 39 S 15 24 29.84 1010 10 16.0934 0 0
3:55 pm 15:55 Sunny 63 17 37 3 39 39 SSW 13 20 29.83 1010 10 16.0934 0 0
4:15 pm 16:15 Sunny 63 17 37 3 39 39 SSW 13 20 29.82 1010 10 16.0934 0 0
4:35 pm 16:35 Sunny 63 17 39 4 42 42 SW 14 22 29.8 1009 10 16.0934 0 0
4:55 pm 16:55 Sunny 63 17 37 3 39 39 S 12 19 29.79 1009 10 16.0934 0 0
5:15 pm 17:15 Mostly Cloudy 63 17 39 4 42 42 SSW 8 13 29.79 1009 10 16.0934 0 0
5:35 pm 17:35 Mostly Cloudy 63 17 39 4 42 42 SSW 8 13 29.78 1008 10 16.0934 0 0
5:55 pm 17:55 Sunny 63 17 41 5 45 45 S 7 11 29.78 1008 10 16.0934 0 0
6:15 pm 18:15 Sunny 63 17 41 5 45 45 S 8 13 29.77 1008 10 16.0934 0 0
6:35 pm 18:35 Sunny 64 18 41 5 43 43 S 5 7 29.75 1008 10 16.0934 0 0
6:55 pm 18:55 Sunny 63 17 41 5 45 45 S 6 9 29.77 1008 10 16.0934 0 0
7:15 pm 19:15 Sunny 63 17 43 6 49 49 SSW 3 6 29.77 1008 10 16.0934 0 0
7:35 pm 19:35 Sunny 63 17 41 5 45 45 Calm 29.77 1008 10 16.0934 0 0
7:55 pm 19:55 Clear 63 17 41 5 45 45 Calm 29.76 1008 10 16.0934 0 0
8:15 pm 20:15 Clear 61 16 41 5 48 48 S 3 6 29.75 1007 10 16.0934 0 0
8:35 pm 20:35 Clear 59 15 41 5 51 51 SSW 7 11 29.77 1008 10 16.0934 0 0
8:55 pm 20:55 Clear 59 15 41 5 51 51 SSW 7 11 29.77 1008 10 16.0934 0 0
9:15 pm 21:15 Clear 59 15 37 3 45 45 SSW 3 6 29.76 1008 10 16.0934 0 0
9:35 pm 21:35 Clear 59 15 37 3 45 45 S 5 7 29.76 1008 10 16.0934 0 0
9:55 pm 21:55 Clear 59 15 37 3 45 45 S 3 6 29.76 1008 10 16.0934 0 0
10:15 pm 22:15 Clear 57 14 37 3 48 48 Calm 29.77 1008 10 16.0934 0 0
10:35 pm 22:35 Clear 59 15 39 4 48 48 Calm 29.76 1008 10 16.0934 0 0
10:55 pm 22:55 Clear 55 13 41 5 59 59 Calm 29.75 1008 10 16.0934 0 0
11:15 pm 23:15 Partly Cloudy 54 12 43 6 67 67 Calm 29.75 1008 10 16.0934 0 0
11:35 pm 23:35 Partly Cloudy 54 12 43 6 67 67 Calm 29.74 1007 10 16.0934 0 0
11:55 pm 23:55 Cloudy 52 11 43 6 72 72 Calm 29.73 1007 10 16.0934 0 0

Powered by AerisWeather